Flag for Canada Weather past 2 weeks in Abbotsford, British Columbia, Canada

Now
75 °F

Mostly cloudy.


Feels Like: 77 °F
Forecast: 60 / 87 °F
Wind: 3 mph from South

Location: Abbotsford

Current Time: Aug 2, 2015 at 11:47:32 AM

Latest Report: Aug 2, 2015 at 11:00 AM


Visibility: 30 mi

Pressure: 29.93 "Hg

Humidity: 65%

Dew point: 63 °F

Location of AbbotsfordLocation

Historic Weather in Abbotsford — Graph

°F

Abbotsford temperature yesterday

Maximum temperature yesterday: 88 °F (at 4:00 PM)
Minimum temperature yesterday: 57 °F (at 5:00 AM)
Average temperature yesterday: 72 °F

Past Weeks' High & Low Weather Summary

 TemperatureHumidityPressure
High91 °F (Jul 18, 3:00 PM)100% (Jul 24, 8:00 PM)30.29 "Hg (Jul 24, 8:00 PM)
Low54 °F (Jul 22, 5:00 AM)20% (Jul 29, 7:00 PM)29.87 "Hg (Jul 22, 8:00 PM)
Average68 °F65%30.03 "Hg
* Reported Jul 18 10:00 AM — Aug 2 10:00 AM, Abbotsford, Weather by CustomWeather, © 2015

Note: Actual official high and low records may vary slightly from our data, if they occured in-between our weather recording intervals... More about our weather records

Advertising

Abbotsford weather history for previous 24 hours

 ConditionsComfort  
Time TempWeatherWind HumidityBarometerVisibility
10:00 AM
Sun, Aug 2
72 °FMostly cloudy.3 mph73%29.95 "Hg30 mi
9:00 AM70 °FMostly cloudy.7 mph73%29.95 "Hg30 mi
8:00 AM66 °FScattered clouds.3 mph78%29.94 "Hg30 mi
7:00 AM63 °FScattered clouds.2 mph83%29.93 "Hg30 mi
6:00 AM59 °FPassing clouds.2 mph82%29.93 "Hg30 mi
5:00 AM61 °FPassing clouds.No wind83%29.92 "Hg30 mi
4:00 AM61 °FPassing clouds.2 mph77%29.92 "Hg15 mi
3:00 AM63 °FPassing clouds.3 mph77%29.91 "Hg15 mi
2:00 AM64 °FPassing clouds.3 mph73%29.91 "Hg15 mi
1:00 AM66 °FPassing clouds.6 mph73%29.91 "Hg10 mi
12:00 AM68 °FPassing clouds.No wind64%29.90 "Hg10 mi
11:00 PM
Sat, Aug 1
68 °FPassing clouds.2 mph64%29.91 "Hg10 mi
10:00 PM68 °FPassing clouds.6 mph64%29.92 "Hg10 mi
9:00 PM72 °FScattered clouds.6 mph57%29.91 "Hg30 mi
8:00 PM77 °FPassing clouds.12 mph51%29.90 "Hg30 mi
7:00 PM84 °FPassing clouds.12 mph40%29.90 "Hg30 mi
6:00 PM88 °FScattered clouds.9 mph35%29.90 "Hg30 mi
5:00 PM88 °FScattered clouds.9 mph35%29.92 "Hg30 mi
4:00 PM88 °FScattered clouds.10 mph38%29.93 "Hg30 mi
3:00 PM86 °FScattered clouds.7 mph46%29.96 "Hg30 mi
2:00 PM84 °FBroken clouds.6 mph43%29.97 "Hg30 mi
1:00 PM81 °FBroken clouds.5 mph48%29.97 "Hg30 mi
12:00 PM79 °FScattered clouds.6 mph51%30.00 "Hg30 mi
11:00 AM75 °FScattered clouds.5 mph57%30.00 "Hg30 mi
Weather by CustomWeather, © 2015

See weather overviewHow to use our weather pages